Location: Newark
(39.9581°N, 97.2014°W)
Time: 18:16:14
(UTC+00:00)

Envisat - Pass Details

Date: 26 January 2020
Orbit: 764 x 766 km, 98.1° (Epoch: 22 February)

Event Time Altitude Azimuth Distance (km) Brightness Sun altitude
Rises 00:06:57 0° 160° (SSE) 3,218 6.2 -5.8°
Reaches altitude 10° 00:09:15 10° 158° (SSE) 2,296 5.5 -6.2°
Maximum altitude 00:14:17 72° 75° (ENE) 805 3.0 -7.1°
Drops below altitude 10° 00:19:21 10° 352° (N) 2,311 5.4 -8.0°
Sets 00:21:40 0° 350° (N) 3,241 6.2 -8.4°
